W2PJ Weather Reports


Display with metric or nautical units.
time (UTC)temp
F
wind
direction
speed
MPH
gust
MPH
rain 1hr
in
rain 24hr
in
rain mn
in
humidity
%
barometer
mb
20260831022121 63 130 0.0 0.0 0.00 0.00 0.00 92 1020.6
20260831021647 63 129 0.0 0.0 0.00 0.00 0.00 92 1020.5
20260831021008 63 157 0.0 0.0 0.00 0.00 0.00 92 1020.5
20260831020529 63 157 0.0 0.0 0.00 0.00 0.00 92 1020.5
20260831020109 63 169 0.0 0.0 0.00 0.00 0.00 92 1020.4
20260831015609 63 195 0.0 0.0 0.00 0.00 0.00 92 1020.5
20260831015128 63 200 0.0 0.0 0.00 0.00 0.00 92 1020.5
20260831014526 63 221 0.0 0.0 0.00 0.00 0.00 92 1020.5
20260831014048 63 181 0.0 0.0 0.00 0.00 0.00 92 1020.6
20260831013610 63 175 0.0 0.0 0.00 0.00 0.00 92 1020.6
20260831013136 63 200 0.0 0.0 0.00 0.00 0.00 92 1020.5
20260831012508 63 204 0.0 0.0 0.00 0.00 0.00 92 1020.6
20260831012025 63 247 0.0 0.0 0.00 0.00 0.00 92 1020.5
20260831011601 64 252 0.0 0.0 0.00 0.00 0.00 92 1020.5
20260831011105 64 247 0.0 0.0 0.00 0.00 0.00 92 1020.5
20260831010624 64 216 0.0 0.0 0.00 0.00 0.00 92 1020.5
20260831010147 64 258 0.0 0.0 0.00 0.00 0.00 92 1020.5
20260831005508 64 318 0.0 0.0 0.00 0.00 0.00 92 1020.6
20260831005024 64 259 0.0 0.0 0.00 0.00 0.00 92 1020.4
20260831004551 64 321 0.0 0.0 0.00 0.00 0.00 92 1020.4
20260831004108 64 299 0.0 0.0 0.00 0.00 0.00 92 1020.4
20260831003632 64 294 0.0 0.0 0.00 0.00 0.00 92 1020.3
20260831003150 64 272 0.0 0.0 0.00 0.00 0.00 92 1020.1
20260831002515 64 268 0.0 0.0 0.00 0.00 0.00 92 1019.9
20260831002033 64 249 0.0 0.0 0.00 0.00 0.00 92 1019.9
20260831001550 64 276 0.0 1.0 0.00 0.00 0.00 92 1019.8
20260831001106 64 289 0.0 1.0 0.00 0.00 0.00 92 1019.6
20260831000627 64 282 0.0 0.0 0.00 0.00 0.00 92 1019.6
20260831000146 64 258 0.0 0.0 0.00 0.00 0.00 92 1019.5
20260830235522 64 293 0.0 0.0 0.00 0.00 0.00 92 1019.5
20260830235040 64 259 0.0 0.0 0.00 0.00 0.00 92 1019.5
20260830234611 64 276 0.0 0.0 0.00 0.00 0.00 92 1019.4
20260830234120 64 254 0.0 0.0 0.00 0.00 0.00 92 1019.3
20260830233508 64 280 0.0 0.0 0.00 0.00 0.00 92 1019.4
20260830233052 64 259 0.0 0.0 0.00 0.00 0.00 92 1019.4
20260830232613 64 261 0.0 0.0 0.00 0.00 0.00 92 1019.2
20260830232126 64 247 0.0 0.0 0.00 0.00 0.00 92 1019.2
20260830231541 64 254 0.0 1.0 0.00 0.00 0.00 92 1019.3
20260830231102 64 252 0.0 0.0 0.00 0.00 0.00 92 1019.3
20260830230619 64 221 0.0 0.0 0.00 0.00 0.00 92 1019.3
20260830230144 64 264 0.0 0.0 0.00 0.00 0.00 92 1019.3
20260830225502 63 244 0.0 0.0 0.00 0.00 0.00 92 1019.4
20260830225018 63 297 0.0 0.0 0.00 0.00 0.00 92 1019.4
20260830224607 63 271 0.0 0.0 0.00 0.00 0.00 92 1019.3
20260830224121 63 254 0.0 0.0 0.00 0.00 0.00 92 1019.4
20260830223504 63 261 0.0 0.0 0.00 0.00 0.00 92 1019.3
20260830223044 63 276 0.0 0.0 0.00 0.00 0.00 92 1019.3
20260830222600 63 310 0.0 0.0 0.00 0.00 0.00 92 1019.3
20260830222123 63 273 0.0 0.0 0.00 0.00 0.00 92 1019.2
20260830221638 63 278 0.0 0.0 0.00 0.00 0.00 92 1019.2
20260830221016 63 283 0.0 0.0 0.00 0.00 0.00 92 1019.3
20260830220534 63 248 0.0 0.0 0.00 0.00 0.00 92 1019.3
20260830215606 64 242 0.0 0.0 0.00 0.00 0.00 92 1019.2
20260830215122 64 287 0.0 0.0 0.00 0.00 0.00 91 1019.1
20260830214543 64 272 0.0 0.0 0.00 0.00 0.00 91 1019.1
20260830214059 64 261 0.0 0.0 0.00 0.00 0.00 91 1019.1
20260830213616 64 273 0.0 0.0 0.00 0.00 0.00 92 1019.2
20260830213138 64 268 0.0 0.0 0.00 0.00 0.00 92 1019.2
20260830212511 64 242 0.0 0.0 0.00 0.00 0.00 92 1019.2
20260830212028 64 245 0.0 1.0 0.00 0.00 0.00 92 1019.2
20260830211556 64 245 0.0 1.0 0.00 0.00 0.00 92 1019.2
20260830211104 64 233 0.0 0.0 0.00 0.00 0.00 92 1019.2
20260830210622 64 212 0.0 0.0 0.00 0.00 0.00 92 1019.2
20260830210147 64 216 0.0 0.0 0.00 0.00 0.00 92 1019.3
20260830205505 64 251 0.0 0.0 0.00 0.00 0.00 92 1019.3
20260830205019 64 253 0.0 0.0 0.00 0.00 0.00 92 1019.4
20260830204540 64 221 0.0 0.0 0.00 0.00 0.00 92 1019.3
20260830204101 64 249 0.0 0.0 0.00 0.00 0.00 92 1019.2
20260830203621 63 252 0.0 0.0 0.00 0.00 0.00 92 1019.3
20260830203142 63 293 0.0 0.0 0.00 0.00 0.00 92 1019.2
20260830202509 63 269 0.0 0.0 0.00 0.00 0.00 92 1019.2
20260830202028 63 289 0.0 0.0 0.00 0.00 0.00 92 1019.3
20260830201545 63 293 0.0 0.0 0.00 0.00 0.00 92 1019.2
20260830201105 63 278 0.0 0.0 0.00 0.00 0.00 92 1019.3
20260830200621 63 290 0.0 0.0 0.00 0.00 0.00 92 1019.3
20260830200148 63 325 0.0 0.0 0.00 0.00 0.00 92 1019.3
20260830195516 63 325 0.0 0.0 0.00 0.00 0.00 92 1019.3
20260830195034 63 289 0.0 0.0 0.00 0.00 0.00 92 1019.3
20260830194549 63 288 0.0 0.0 0.00 0.00 0.00 92 1019.4
20260830194104 63 280 0.0 0.0 0.00 0.00 0.00 92 1019.4
20260830193625 63 10 0.0 0.0 0.00 0.00 0.00 91 1019.5
20260830193039 64 269 0.0 0.0 0.00 0.00 0.00 91 1019.6
20260830192553 64 85 0.0 0.0 0.00 0.00 0.00 91 1019.6
20260830192113 64 56 0.0 0.0 0.00 0.00 0.00 90 1019.6
20260830191530 64 56 0.0 0.0 0.00 0.00 0.00 90 1019.8
20260830191047 65 339 0.0 0.0 0.00 0.00 0.00 89 1019.8
20260830190612 65 34 0.0 0.0 0.00 0.00 0.00 88 1019.8
20260830190139 65 22 0.0 0.0 0.00 0.00 0.00 87 1019.8
20260830185508 66 318 0.0 1.0 0.00 0.00 0.00 86 1019.7
20260830185024 66 15 0.0 3.0 0.00 0.00 0.00 85 1019.8
20260830184606 66 301 0.0 3.0 0.00 0.00 0.00 84 1019.8
20260830184115 66 267 0.0 2.0 0.00 0.00 0.00 83 1019.9
20260830183633 67 67 0.0 6.0 0.00 0.00 0.00 82 1019.8
20260830183050 67 7 0.0 7.0 0.00 0.00 0.00 80 1019.8
20260830182607 68 254 0.0 7.0 0.00 0.00 0.00 77 1019.7
20260830182125 69 20 0.0 7.0 0.00 0.00 0.00 76 1019.7
20260830181650 69 257 0.0 4.0 0.00 0.00 0.00 74 1019.6
20260830181016 70 338 0.0 3.0 0.00 0.00 0.00 73 1019.6
20260830180535 70 317 0.0 3.0 0.00 0.00 0.00 72 1019.6
20260830180056 70 265 0.0 5.0 0.00 0.00 0.00 72 1019.6
20260830175605 71 292 0.0 7.0 0.00 0.00 0.00 71 1019.4
20260830175121 71 261 0.0 7.0 0.00 0.00 0.00 71 1019.5
20260830174645 71 276 1.0 6.0 0.00 0.00 0.00 71 1019.5
20260830174017 71 269 0.0 3.0 0.00 0.00 0.00 72 1019.5
20260830173536 70 255 0.0 2.0 0.00 0.00 0.00 73 1019.4
20260830173054 70 72 0.0 2.0 0.00 0.00 0.00 72 1019.5
20260830172617 70 292 0.0 5.0 0.00 0.00 0.00 72 1019.6
20260830172131 70 288 0.0 5.0 0.00 0.00 0.00 71 1019.6
20260830171544 71 316 0.0 3.0 0.00 0.00 0.00 71 1019.6
20260830171102 71 257 0.0 6.0 0.00 0.00 0.00 69 1019.7
20260830170622 71 249 0.0 6.0 0.00 0.00 0.00 69 1019.6
20260830170030 72 259 0.0 5.0 0.00 0.00 0.00 69 1019.6
20260830165550 71 280 1.0 7.0 0.00 0.00 0.00 67 1019.5
20260830165107 72 299 1.0 7.0 0.00 0.00 0.00 68 1019.5
20260830164634 71 252 0.0 4.0 0.00 0.00 0.00 67 1019.5
20260830164006 71 290 0.0 3.0 0.00 0.00 0.00 68 1019.6
20260830163522 71 272 0.0 3.0 0.00 0.00 0.00 68 1019.6
20260830163052 71 231 0.0 5.0 0.00 0.00 0.00 68 1019.7
20260830162606 71 249 1.0 5.0 0.00 0.00 0.00 67 1019.8
20260830162124 71 268 0.0 5.0 0.00 0.00 0.00 69 1019.7
20260830161647 71 220 0.0 4.0 0.00 0.00 0.00 71 1019.8
20260830161014 71 193 0.0 4.0 0.00 0.00 0.00 72 1019.9
20260830160529 71 178 0.0 0.0 0.00 0.00 0.00 72 1019.8
20260830160046 71 247 0.0 0.0 0.00 0.00 0.00 74 1019.8
20260830155605 70 172 0.0 0.0 0.00 0.00 0.00 76 1019.9
20260830155119 70 146 0.0 0.0 0.00 0.00 0.00 77 1019.9
20260830154537 69 136 0.0 0.0 0.00 0.00 0.00 76 1019.9
20260830154050 69 167 0.0 1.0 0.00 0.00 0.00 76 1020.0
20260830153609 69 202 0.0 1.0 0.00 0.00 0.00 76 1020.1
20260830153047 69 164 0.0 1.0 0.00 0.00 0.00 77 1020.2
20260830152551 69 143 0.0 1.0 0.00 0.00 0.00 76 1020.1
20260830152111 69 144 0.0 0.0 0.00 0.00 0.00 76 1020.1
20260830151509 69 143 0.0 0.0 0.00 0.00 0.00 76 1020.1
20260830151026 69 80 0.0 0.0 0.00 0.00 0.00 76 1020.1
20260830150542 68 154 0.0 0.0 0.00 0.00 0.00 76 1020.1
20260830150054 68 165 0.0 1.0 0.00 0.00 0.00 77 1020.0
20260830145616 68 179 0.0 1.0 0.00 0.00 0.00 76 1020.0
20260830145135 68 169 0.0 3.0 0.00 0.00 0.00 76 1020.0
20260830144650 68 210 0.0 1.0 0.00 0.00 0.00 75 1019.9
20260830144009 68 145 0.0 4.0 0.00 0.00 0.00 77 1019.9
20260830143527 68 114 0.0 2.0 0.00 0.00 0.00 76 1019.8
20260830143104 68 150 0.0 3.0 0.00 0.00 0.00 76 1019.8
20260830142610 68 124 0.0 5.0 0.00 0.00 0.00 76 1019.7
20260830142121 68 219 0.0 5.0 0.00 0.00 0.00 76 1019.8
20260830141542 67 166 0.0 3.0 0.00 0.00 0.00 76 1019.8
20260830141057 67 120 0.0 3.0 0.00 0.00 0.00 76 1019.8
20260830140619 67 145 0.0 3.0 0.00 0.00 0.00 76 1019.9
20260830140038 67 171 0.0 4.0 0.00 0.00 0.00 76 1020.0
20260830135552 67 171 0.0 5.0 0.00 0.00 0.00 76 1020.1
20260830135107 67 152 0.0 5.0 0.00 0.00 0.00 76 1020.1
20260830134635 67 151 0.0 3.0 0.00 0.00 0.00 76 1020.0
20260830134004 67 143 0.0 3.0 0.00 0.00 0.00 76 1019.8
20260830133527 66 172 0.0 3.0 0.00 0.00 0.00 76 1019.9
20260830133055 66 130 0.0 3.0 0.00 0.00 0.00 76 1020.0
20260830132610 66 158 0.0 1.0 0.00 0.00 0.00 76 1019.9
20260830132123 66 155 0.0 0.0 0.00 0.00 0.00 76 1020.0
20260830131644 66 142 0.0 1.0 0.00 0.00 0.00 76 1020.0
20260830131010 66 165 0.0 1.0 0.00 0.00 0.00 76 1020.2
20260830130528 66 128 0.0 0.0 0.00 0.00 0.00 76 1020.1
20260830130106 66 127 0.0 0.0 0.00 0.00 0.00 76 1020.0
20260830125605 66 126 0.0 1.0 0.00 0.00 0.00 76 1020.0
20260830125120 66 148 0.0 1.0 0.00 0.00 0.00 75 1020.0
20260830124648 66 39 0.0 0.0 0.00 0.00 0.00 75 1020.2
20260830124005 65 154 0.0 0.0 0.00 0.00 0.00 75 1020.3
20260830123505 65 111 0.0 0.0 0.00 0.00 0.00 76 1020.4
20260830123004 65 209 0.0 0.0 0.00 0.00 0.00 76 1020.4
20260830122503 65 136 0.0 0.0 0.00 0.00 0.00 76 1020.5
20260830122003 64 130 0.0 1.0 0.00 0.00 0.00 76 1020.5
20260830121503 64 159 0.0 0.0 0.00 0.00 0.00 76 1020.5
20260830121004 64 156 0.0 3.0 0.00 0.00 0.00 76 1020.5
20260830120505 64 138 0.0 3.0 0.00 0.00 0.00 76 1020.4
20260830120002 64 139 0.0 1.0 0.00 0.00 0.00 76 1020.3
20260830115501 64 140 0.0 4.0 0.00 0.00 0.00 76 1020.1
20260830115001 64 136 0.0 4.0 0.00 0.00 0.00 76 1020.3
20260830114500 64 158 0.0 4.0 0.00 0.00 0.00 76 1020.4
20260830114001 64 171 0.0 5.0 0.00 0.00 0.00 76 1020.4
20260830113600 64 168 0.0 5.0 0.00 0.00 0.00 76 1020.3
20260830113100 63 133 0.0 0.0 0.00 0.00 0.00 77 1020.4
20260830112559 63 150 0.0 0.0 0.00 0.00 0.00 77 1020.4
20260830112102 63 158 0.0 0.0 0.00 0.00 0.00 77 1020.5
20260830111600 63 105 0.0 0.0 0.00 0.00 0.00 77 1020.6
20260830111058 63 199 0.0 0.0 0.00 0.00 0.00 77 1020.5
20260830110558 63 116 0.0 0.0 0.00 0.00 0.00 77 1020.7
20260830110058 63 126 0.0 1.0 0.00 0.00 0.00 78 1020.6
20260830105557 63 147 0.0 1.0 0.00 0.00 0.00 78 1020.6
20260830105057 63 138 0.0 0.0 0.00 0.00 0.00 78 1020.5
20260830104557 63 126 0.0 3.0 0.00 0.00 0.00 78 1020.6
20260830104055 63 145 0.0 0.0 0.00 0.00 0.00 78 1020.6
20260830103600 63 129 0.0 0.0 0.00 0.00 0.00 78 1020.7
20260830103056 63 130 0.0 1.0 0.00 0.00 0.00 77 1020.7
20260830102556 63 97 0.0 1.0 0.00 0.00 0.00 77 1020.7
20260830102054 63 134 0.0 0.0 0.00 0.00 0.00 77 1020.7
20260830101605 63 109 0.0 0.0 0.00 0.00 0.00 77 1020.7
20260830101054 63 122 0.0 0.0 0.00 0.00 0.00 77 1020.7
20260830100553 63 115 0.0 0.0 0.00 0.00 0.00 77 1020.7
20260830100053 63 141 0.0 0.0 0.00 0.00 0.00 77 1020.8
20260830095553 63 134 0.0 0.0 0.00 0.00 0.00 77 1020.7
20260830095052 64 143 0.0 0.0 0.00 0.00 0.00 76 1020.6
20260830094552 64 156 0.0 0.0 0.00 0.00 0.00 76 1020.7
20260830094053 64 127 0.0 0.0 0.00 0.00 0.00 75 1020.8
20260830093551 64 148 0.0 0.0 0.00 0.00 0.00 75 1020.8
20260830093051 64 120 0.0 0.0 0.00 0.00 0.00 75 1020.8
20260830092550 64 148 0.0 0.0 0.00 0.00 0.00 75 1020.9
20260830092050 64 148 0.0 0.0 0.00 0.00 0.00 75 1021.0
20260830091550 64 171 0.0 0.0 0.00 0.00 0.00 75 1021.0
20260830091049 64 165 0.0 0.0 0.00 0.00 0.00 75 1020.9
20260830090549 65 137 0.0 0.0 0.00 0.00 0.00 74 1021.0
20260830090039 65 158 0.0 0.0 0.00 0.00 0.00 74 1021.1
20260830085551 65 136 0.0 0.0 0.00 0.00 0.00 74 1021.1
20260830085107 65 143 0.0 0.0 0.00 0.00 0.00 74 1021.1
20260830084509 65 143 0.0 0.0 0.00 0.00 0.00 74 1021.2
20260830084029 65 172 0.0 0.0 0.00 0.00 0.00 74 1021.2
20260830083552 64 140 0.0 0.0 0.00 0.00 0.00 75 1021.4
20260830083105 64 125 0.0 0.0 0.00 0.00 0.00 75 1021.2
20260830082611 64 123 0.0 0.0 0.00 0.00 0.00 75 1021.1
20260830082003 64 145 0.0 0.0 0.00 0.00 0.00 75 1021.2
20260830081652 64 158 0.0 0.0 0.00 0.00 0.00 75 1021.1
20260830081011 64 144 0.0 0.0 0.00 0.00 0.00 75 1021.1
20260830080532 64 145 0.0 0.0 0.00 0.00 0.00 75 1021.2
20260830080055 64 167 0.0 0.0 0.00 0.00 0.00 75 1021.2
20260830075618 64 168 0.0 0.0 0.00 0.00 0.00 75 1021.2
20260830075002 64 126 0.0 0.0 0.00 0.00 0.00 75 1021.3
20260830074551 64 143 0.0 0.0 0.00 0.00 0.00 75 1021.4
20260830074103 64 167 0.0 0.0 0.00 0.00 0.00 75 1021.3
20260830073619 64 144 0.0 0.0 0.00 0.00 0.00 75 1021.3
20260830073149 64 138 0.0 0.0 0.00 0.00 0.00 75 1021.3
20260830072517 64 140 0.0 0.0 0.00 0.00 0.00 75 1021.3
20260830072037 64 162 0.0 0.0 0.00 0.00 0.00 75 1021.4
20260830071552 65 152 0.0 0.0 0.00 0.00 0.00 75 1021.4
20260830071106 65 164 0.0 0.0 0.00 0.00 0.00 75 1021.4
20260830070624 65 145 0.0 0.0 0.00 0.00 0.00 75 1021.4
20260830070034 65 224 0.0 0.0 0.00 0.00 0.00 75 1021.4
20260830065552 65 167 0.0 0.0 0.00 0.00 0.00 75 1021.4
20260830065107 65 172 0.0 0.0 0.00 0.00 0.00 75 1021.4
20260830064509 64 162 0.0 0.0 0.00 0.00 0.00 75 1021.4
20260830064026 64 150 0.0 0.0 0.00 0.00 0.00 75 1021.4
20260830063548 64 127 0.0 0.0 0.00 0.00 0.00 75 1021.4
20260830063138 64 150 0.0 0.0 0.00 0.00 0.00 75 1021.3
20260830062507 64 185 0.0 0.0 0.00 0.00 0.00 75 1021.4
20260830062029 64 155 0.0 0.0 0.00 0.00 0.00 75 1021.4
20260830061557 64 156 0.0 0.0 0.00 0.00 0.00 75 1021.3
20260830061115 64 220 0.0 0.0 0.00 0.00 0.00 75 1021.3
20260830060505 64 148 0.0 0.0 0.00 0.00 0.00 75 1021.4
20260830060153 64 167 0.0 0.0 0.00 0.00 0.00 75 1021.5
20260830055511 64 136 0.0 0.0 0.00 0.00 0.00 75 1021.4
20260830055029 64 155 0.0 1.0 0.00 0.00 0.00 75 1021.5
20260830054541 64 142 0.0 1.0 0.00 0.00 0.00 76 1021.5
20260830054103 64 144 0.0 0.0 0.00 0.00 0.00 76 1021.6
20260830053627 63 140 0.0 0.0 0.00 0.00 0.00 76 1021.5
20260830053041 63 162 0.0 0.0 0.00 0.00 0.00 76 1021.5
20260830052603 63 167 0.0 0.0 0.00 0.00 0.00 77 1021.5
20260830052117 63 141 0.0 0.0 0.00 0.00 0.00 77 1021.6
20260830051641 63 129 0.0 0.0 0.00 0.00 0.00 77 1021.6
20260830051021 63 122 0.0 0.0 0.00 0.00 0.00 77 1021.6
20260830050531 63 141 0.0 0.0 0.00 0.00 0.00 77 1021.5
20260830050059 63 144 0.0 0.0 0.00 0.00 0.00 77 1021.7
20260830045609 63 104 0.0 0.0 0.00 0.00 0.00 77 1021.7
20260830045129 63 152 0.0 0.0 0.00 0.00 0.00 77 1021.7
20260830044650 63 117 0.0 0.0 0.00 0.00 0.00 77 1021.7
20260830044023 63 222 0.0 0.0 0.00 0.00 0.00 77 1021.8
20260830043539 63 144 0.0 0.0 0.00 0.00 0.00 78 1021.8
20260830043107 63 139 0.0 0.0 0.00 0.00 0.00 78 1021.8
20260830042614 63 127 0.0 0.0 0.00 0.00 0.00 78 1021.8
20260830042134 63 131 0.0 0.0 0.00 0.00 0.00 78 1021.7
20260830041542 63 136 0.0 0.0 0.00 0.00 0.00 77 1021.6
20260830041101 63 136 0.0 0.0 0.00 0.00 0.00 77 1021.7
20260830040621 63 143 0.0 0.0 0.00 0.00 0.00 77 1021.7
20260830040005 63 136 0.0 0.0 0.00 0.00 0.00 77 1021.7
20260830035530 63 130 0.0 0.0 0.00 0.00 0.00 77 1021.6
20260830035048 63 119 0.0 0.0 0.00 0.00 0.00 77 1021.6
20260830034618 63 166 0.0 1.0 0.00 0.00 0.00 76 1021.6
20260830034122 63 127 0.0 1.0 0.00 0.00 0.00 76 1021.5
20260830033506 63 109 0.0 0.0 0.00 0.00 0.00 76 1021.6
20260830033025 63 160 0.0 0.0 0.00 0.00 0.00 77 1021.6
20260830032546 63 161 0.0 1.0 0.00 0.00 0.00 77 1021.6
20260830032104 63 122 0.0 1.0 0.00 0.00 0.00 77 1021.5
20260830031632 63 117 0.0 1.0 0.00 0.00 0.00 77 1021.6
20260830031002 63 144 0.0 1.0 0.00 0.00 0.00 77 1021.6
20260830030522 63 129 0.0 1.0 0.00 0.00 0.00 77 1021.7
20260830030050 63 155 0.0 0.0 0.00 0.00 0.00 77 1021.7
20260830025614 63 140 0.0 0.0 0.00 0.00 0.00 77 1021.7
20260830025129 64 133 0.0 0.0 0.00 0.00 0.00 76 1021.7
20260830024545 64 162 0.0 1.0 0.00 0.00 0.00 75 1021.7
20260830024058 64 145 0.0 1.0 0.00 0.00 0.00 75 1021.8
20260830023614 64 136 0.0 0.0 0.00 0.00 0.00 75 1021.8
20260830023034 64 150 0.0 1.0 0.00 0.00 0.00 75 1021.9
20260830022555 64 161 0.0 0.0 0.00 0.00 0.00 75 1021.9